Abilene, TX

5:24 AM CDT on August 19, 2017 (GMT -0500)
Abilene Regional

Weather History for KABI - November, 2012

Change the Weather History Date:

Sunday, November 25, 2012

  Actual Average Record
Temperature  
Mean Temperature 64 °F 51 °F  
Max Temperature 77 °F 62 °F 90 °F (1965)
Min Temperature 50 °F 39 °F 23 °F (1993)
Degree Days  
Heating Degree Days 1 15  
Month to date heating degree days 160 251  
Since 1 July heating degree days 294 355  
Cooling Degree Days 0 0  
Month to date cooling degree days 37 15  
Year to date cooling degree days 3033 2404  
Growing Degree Days 14 (Base 50)    
Moisture  
Dew Point 40 °F    
Average Humidity 43    
Maximum Humidity 56    
Minimum Humidity 29    
Precipitation  
Precipitation 0.00 in 0.04 in 1.43 in (1986)
Month to date precipitation 0.29 1.22  
Year to date precipitation 23.16 23.40  
Sea Level Pressure  
Sea Level Pressure 29.87 in    
Wind  
Wind Speed 14 mph (SSW)    
Max Wind Speed 22 mph    
Max Gust Speed 30 mph    
Visibility 10 miles    
Events      
T = Trace of Precipitation, MM = Missing Value Source: NWS Daily Summary

Daily Weather History Graph

Daily Weather History Graph

Search for Another Location

Airport or City:

Trip Planner

Search our weather history database for the weather conditions in past years. The results will help you decide how hot, cold, wet, or windy it might be!

Date:

Astronomy

Nov. 25, 2012 Rise Set
Actual Time 7:17 AM CST 5:34 PM CST
Civil Twilight 6:51 AM CST 6:00 PM CST
Nautical Twilight 6:20 AM CST 6:30 PM CST
Astronomical Twilight 5:51 AM CST 7:00 PM CST
Moon 3:46 PM CST (11/25) 4:39 AM CST (11/25)
Length of Visible Light 11h 09m
Length of Day
10h 16m
Waxing Gibbous, 93% of the Moon is Illuminated
Nov 25
Waxing Gibbous
Nov 28
Full
Dec 6
Last Quarter
Dec 13
New
Dec 19
First Quarter

Hourly Weather History & Observations

Time (CST) Temp. Dew Point Humidity Pressure Visibility Wind Dir Wind Speed Gust Speed Precip Events Conditions
12:52 AM 55.0 °F 34.0 °F 45% 29.98 in 10.0 mi South 15.0 mph 23.0 mph N/A   Clear
1:52 AM 54.0 °F 35.1 °F 49% 29.96 in 10.0 mi South 16.1 mph - N/A   Clear
2:52 AM 53.1 °F 35.1 °F 50% 29.95 in 10.0 mi SSW 13.8 mph - N/A   Clear
3:52 AM 53.1 °F 34.0 °F 48% 29.93 in 10.0 mi SSW 16.1 mph 24.2 mph N/A   Clear
4:52 AM 52.0 °F 34.0 °F 50% 29.91 in 10.0 mi SSW 20.7 mph 27.6 mph N/A   Clear
5:52 AM 52.0 °F 34.0 °F 50% 29.92 in 10.0 mi SSW 13.8 mph 23.0 mph N/A   Clear
6:52 AM 51.1 °F 34.0 °F 52% 29.94 in 10.0 mi SSW 11.5 mph 18.4 mph N/A   Clear
7:52 AM 52.0 °F 35.1 °F 53% 29.93 in 10.0 mi SSW 16.1 mph 25.3 mph N/A   Clear
8:52 AM 54.0 °F 37.0 °F 53% 29.94 in 10.0 mi SSW 12.7 mph 21.9 mph N/A   Clear
9:52 AM 60.1 °F 39.0 °F 46% 29.93 in 10.0 mi SSW 15.0 mph - N/A   Clear
10:52 AM 64.0 °F 41.0 °F 43% 29.93 in 10.0 mi SSW 19.6 mph 25.3 mph N/A   Clear
11:52 AM 69.1 °F 43.0 °F 39% 29.89 in 10.0 mi SW 13.8 mph - N/A   Clear
12:52 PM 73.0 °F 44.1 °F 35% 29.84 in 10.0 mi SW 15.0 mph 24.2 mph N/A   Clear
1:52 PM 75.9 °F 43.0 °F 31% 29.81 in 10.0 mi SSW 13.8 mph 25.3 mph N/A   Clear
2:52 PM 75.9 °F 42.1 °F 30% 29.80 in 10.0 mi SSW 17.3 mph - N/A   Clear
3:52 PM 77.0 °F 42.1 °F 29% 29.78 in 10.0 mi SW 16.1 mph 23.0 mph N/A   Clear
4:52 PM 75.0 °F 43.0 °F 32% 29.78 in 10.0 mi South 11.5 mph 20.7 mph N/A   Clear
5:52 PM 69.1 °F 44.1 °F 40% 29.78 in 10.0 mi South 9.2 mph - N/A   Clear
6:52 PM 66.0 °F 43.0 °F 43% 29.80 in 10.0 mi South 10.4 mph - N/A   Clear
7:52 PM 64.9 °F 43.0 °F 45% 29.81 in 10.0 mi South 9.2 mph - N/A   Clear
8:52 PM 64.0 °F 44.1 °F 48% 29.82 in 10.0 mi SSW 11.5 mph - N/A   Clear
9:52 PM 64.0 °F 45.0 °F 50% 29.81 in 10.0 mi SSW 15.0 mph - N/A   Clear
10:52 PM 63.0 °F 46.0 °F 54% 29.81 in 10.0 mi SSW 16.1 mph 25.3 mph N/A   Clear
11:52 PM 62.1 °F 48.0 °F 60% 29.81 in 10.0 mi SSW 17.3 mph 25.3 mph N/A   Clear